Regional Weather Roundup
Issued by NWS Goodland, KS

Home | Current Version | Previous Version | Graphics & Text | Print | Product List | Glossary On
Versions: 1 2 3 4 5 6 7 8 9 10 11 12 13 14 15 16 17 18 19 20 21 22 23 24 25 26 27 28 29 30 31 32 33 34 35 36 37 38 39 40 41 42 43 44 45 46 47 48 49 50
000
ASUS43 KGLD 080459
RWRGLD

GOODLAND FORECAST AREA HOURLY WEATHER ROUNDUP
NATIONAL WEATHER SERVICE GOODLAND KS
1000 PM MST WED DEC 07 2016

...OFFICIAL OBSERVATIONS...

CITY           SKY/WX    TMP DP  RH WIND       PRES   REMARKS
GOODLAND KS    CLEAR      2  -3  80 NW14      30.47R WCI -16
HILL CITY KS   CLEAR     10   5  80 NW9       30.54R
IMPERIAL NEB   CLEAR      3  -5  69 NW12      30.50R WCI -13
MCCOOK NEB     CLEAR     -1  -5  82 W8        30.53R
AKRON CO       CLOUDY    -6 -10  83 SW7       30.43R
BURLINGTON CO  CLEAR      1  -5  75 NW13      30.45S WCI -17
LIMON CO       CLOUDY    -2  -4  91 N7        30.38R
$$

...UNOFFICIAL OBSERVATIONS...

CITY           SKY/WX    TMP DP  RH WIND       PRES   REMARKS
COLBY KS       CLEAR      5   3  92 NW13      30.50R WCI -12
LENORA KS        N/A      9  32 100 MISG        N/A
NORTON KS      CLEAR      9   0  66 W12       30.52R WCI  -6
SHARON SPRINGS   N/A      7   3  83 NW13G20     N/A  WCI  -9
TRENTON NEB      N/A      3  32 100 NW8         N/A
KIT CARSON CO    N/A      3  -2  79 CALM        N/A
YUMA CO        FAIR      -6 -13  71 W10       30.47R WCI -23
$$



USA.gov is the U.S. government's official web portal to all federal, state and local government web resources and services.